• In Germany
  • List of Countries
  • For 7 days
  • Water Temperature
  • Satellite Maps
  • Weather Map
  • Weather Widgets
  • user-avatar
    Login

    Hourly Weather Makoua

    Today, 21 August, Monday

    Time Temperature Precipitation Wind Pressure Humidity
    00:00 +24°C° 0.1 mm 1 mps 728 mmHg 92%
    01:00 +24°C° 0.1 mm 1 mps 728 mmHg 92%
    02:00 +24°C° 0.1 mm 1 mps 727 mmHg 93%
    03:00 +24°C° 0.1 mm 1 mps 727 mmHg 93%
    04:00 +23°C° 0.1 mm 1 mps 727 mmHg 93%
    05:00 +24°C° 0 mm 1 mps 727 mmHg 92%
    06:00 +24°C° 0 mm 1 mps 727 mmHg 90%
    07:00 +24°C° 0 mm 1 mps 727 mmHg 88%
    08:00 +26°C° 0.1 mm 1 mps 728 mmHg 78%
    09:00 +29°C° 0.1 mm 1 mps 728 mmHg 69%
    10:00 +31°C° 0.1 mm 2 mps 728 mmHg 59%
    11:00 +31°C° 0.6 mm 2 mps 728 mmHg 60%
    12:00 +31°C° 0.6 mm 1 mps 727 mmHg 61%
    13:00 +31°C° 0.6 mm 1 mps 726 mmHg 62%
    14:00 +31°C° 0.9 mm 1 mps 725 mmHg 65%
    15:00 +30°C° 0.9 mm 1 mps 725 mmHg 68%
    16:00 +30°C° 0.9 mm 1 mps 724 mmHg 71%
    17:00 +28°C° 0.9 mm 1 mps 725 mmHg 78%
    18:00 +27°C° 0.9 mm 1 mps 725 mmHg 85%
    19:00 +25°C° 0.9 mm 1 mps 726 mmHg 91%
    20:00 +25°C° 0.1 mm 1 mps 726 mmHg 92%
    21:00 +25°C° 0.1 mm 1 mps 727 mmHg 93%
    22:00 +24°C° 0.1 mm 1 mps 727 mmHg 93%
    23:00 +24°C° 0.2 mm 1 mps 727 mmHg 93%

    Tomorrow, 22 August, Tuesday

    Time Temperature Precipitation Wind Pressure Humidity
    00:00 +24°C° 0.2 mm 1 mps 727 mmHg 93%
    01:00 +24°C° 0.2 mm 1 mps 727 mmHg 93%
    02:00 +23°C° 0 mm 1 mps 727 mmHg 94%
    03:00 +23°C° 0 mm 1 mps 726 mmHg 94%
    04:00 +23°C° 0 mm 1 mps 726 mmHg 94%
    05:00 +23°C° 0 mm 1 mps 727 mmHg 93%
    06:00 +24°C° 0 mm 2 mps 727 mmHg 92%
    07:00 +24°C° 0 mm 2 mps 728 mmHg 91%
    08:00 +25°C° 0 mm 2 mps 728 mmHg 83%
    09:00 +27°C° 0 mm 2 mps 728 mmHg 75%
    10:00 +29°C° 0 mm 2 mps 729 mmHg 67%
    11:00 +30°C° 1.2 mm 2 mps 728 mmHg 66%
    12:00 +30°C° 1.2 mm 1 mps 727 mmHg 65%
    13:00 +31°C° 1.2 mm 1 mps 726 mmHg 63%
    14:00 +30°C° 1 mm 1 mps 726 mmHg 67%
    15:00 +30°C° 1 mm 1 mps 725 mmHg 70%
    16:00 +29°C° 1 mm 1 mps 724 mmHg 74%
    17:00 +28°C° 0.5 mm 1 mps 725 mmHg 79%
    18:00 +25°C° 0.5 mm 0 mps 725 mmHg 85%
    19:00 +23°C° 0.5 mm 0 mps 725 mmHg 90%
    20:00 +23°C° 0.2 mm 0 mps 726 mmHg 91%
    21:00 +25°C° 0.2 mm 1 mps 727 mmHg 91%
    22:00 +25°C° 0.2 mm 1 mps 727 mmHg 92%
    23:00 +24°C° 0 mm 1 mps 727 mmHg 92%

    Day after tomorrow, 23 August, Wednesday

    Time Temperature Precipitation Wind Pressure Humidity
    00:00 +24°C° 0 mm 1 mps 727 mmHg 93%
    01:00 +24°C° 0 mm 1 mps 726 mmHg 94%
    02:00 +24°C° 0.1 mm 1 mps 726 mmHg 94%
    03:00 +24°C° 0.1 mm 1 mps 726 mmHg 94%
    04:00 +23°C° 0.1 mm 1 mps 726 mmHg 94%
    05:00 +23°C° 0 mm 1 mps 726 mmHg 93%
    06:00 +24°C° 0 mm 1 mps 727 mmHg 93%
    07:00 +24°C° 0 mm 1 mps 727 mmHg 92%
    08:00 +24°C° 0.1 mm 1 mps 728 mmHg 89%
    09:00 +25°C° 0.1 mm 2 mps 728 mmHg 85%
    10:00 +26°C° 0.1 mm 2 mps 728 mmHg 82%
    11:00 +27°C° 0.3 mm 2 mps 728 mmHg 77%
    12:00 +28°C° 0.3 mm 2 mps 727 mmHg 73%
    13:00 +29°C° 0.3 mm 2 mps 726 mmHg 69%
    14:00 +29°C° 0.4 mm 1 mps 726 mmHg 70%
    15:00 +29°C° 0.4 mm 1 mps 725 mmHg 72%
    16:00 +29°C° 0.4 mm 1 mps 725 mmHg 73%
    17:00 +27°C° 0.1 mm 1 mps 725 mmHg 79%
    18:00 +26°C° 0.1 mm 1 mps 725 mmHg 84%
    19:00 +25°C° 0.1 mm 1 mps 726 mmHg 89%
    20:00 +25°C° 0 mm 1 mps 726 mmHg 90%
    21:00 +25°C° 0 mm 1 mps 726 mmHg 92%
    22:00 +24°C° 0 mm 1 mps 727 mmHg 93%
    23:00 +24°C° 0.1 mm 1 mps 727 mmHg 94%

    24 August, Thursday

    Time Temperature Precipitation Wind Pressure Humidity
    00:00 +24°C° 0.1 mm 1 mps 726 mmHg 95%
    01:00 +23°C° 0.1 mm 1 mps 726 mmHg 97%
    02:00 +23°C° 0.2 mm 1 mps 726 mmHg 97%
    03:00 +23°C° 0.2 mm 1 mps 726 mmHg 97%
    04:00 +23°C° 0.2 mm 1 mps 726 mmHg 97%
    05:00 +23°C° 0.1 mm 1 mps 726 mmHg 95%
    06:00 +23°C° 0.1 mm 1 mps 727 mmHg 93%
    07:00 +24°C° 0.1 mm 1 mps 727 mmHg 92%
    08:00 +25°C° 0 mm 2 mps 728 mmHg 84%
    09:00 +27°C° 0 mm 2 mps 728 mmHg 77%
    10:00 +28°C° 0 mm 2 mps 728 mmHg 69%
    11:00 +29°C° 0.2 mm 2 mps 728 mmHg 66%
    12:00 +30°C° 0.2 mm 2 mps 727 mmHg 64%
    13:00 +30°C° 0.2 mm 2 mps 726 mmHg 61%
    14:00 +30°C° 0.2 mm 2 mps 725 mmHg 61%
    15:00 +31°C° 0.2 mm 2 mps 725 mmHg 60%
    16:00 +31°C° 0.2 mm 1 mps 725 mmHg 59%
    17:00 +29°C° 0.1 mm 1 mps 725 mmHg 66%
    18:00 +28°C° 0.1 mm 1 mps 725 mmHg 73%
    19:00 +26°C° 0.1 mm 1 mps 726 mmHg 79%
    20:00 +26°C° 0.2 mm 1 mps 726 mmHg 82%
    21:00 +25°C° 0.2 mm 1 mps 727 mmHg 85%
    22:00 +25°C° 0.2 mm 1 mps 727 mmHg 88%
    23:00 +24°C° 0.2 mm 1 mps 727 mmHg 89%

    25 August, Friday

    Time Temperature Precipitation Wind Pressure Humidity
    00:00 +24°C° 0.2 mm 1 mps 727 mmHg 90%
    01:00 +24°C° 0.2 mm 1 mps 726 mmHg 91%
    02:00 +24°C° 0.2 mm 1 mps 726 mmHg 91%
    03:00 +24°C° 0.2 mm 1 mps 726 mmHg 92%
    04:00 +23°C° 0.2 mm 1 mps 726 mmHg 92%
    05:00 +24°C° 0 mm 1 mps 726 mmHg 92%
    06:00 +24°C° 0 mm 1 mps 727 mmHg 91%
    07:00 +24°C° 0 mm 1 mps 727 mmHg 91%
    08:00 +25°C° 0.1 mm 1 mps 728 mmHg 87%
    09:00 +26°C° 0.1 mm 1 mps 728 mmHg 83%
    10:00 +26°C° 0.1 mm 2 mps 728 mmHg 79%
    11:00 +28°C° 0.1 mm 2 mps 728 mmHg 73%
    12:00 +29°C° 0.1 mm 2 mps 727 mmHg 68%
    13:00 +30°C° 0.1 mm 2 mps 726 mmHg 62%
    14:00 +30°C° 0.3 mm 2 mps 726 mmHg 62%
    15:00 +30°C° 0.3 mm 2 mps 725 mmHg 63%
    16:00 +30°C° 0.3 mm 1 mps 725 mmHg 63%
    17:00 +29°C° 0 mm 1 mps 725 mmHg 70%
    18:00 +27°C° 0 mm 1 mps 725 mmHg 76%
    19:00 +26°C° 0 mm 1 mps 726 mmHg 82%
    20:00 +25°C° 0 mm 1 mps 726 mmHg 84%
    21:00 +25°C° 0 mm 1 mps 726 mmHg 85%
    22:00 +25°C° 0 mm 1 mps 727 mmHg 86%
    23:00 +25°C° 0 mm 1 mps 727 mmHg 87%

    26 August, Saturday

    Time Temperature Precipitation Wind Pressure Humidity
    00:00 +24°C° 0 mm 1 mps 726 mmHg 88%
    01:00 +24°C° 0 mm 1 mps 726 mmHg 89%
    02:00 +24°C° 0 mm 1 mps 726 mmHg 88%
    03:00 +24°C° 0 mm 1 mps 726 mmHg 87%
    04:00 +24°C° 0 mm 1 mps 726 mmHg 87%
    05:00 +24°C° 0 mm 2 mps 726 mmHg 85%
    06:00 +24°C° 0 mm 2 mps 727 mmHg 83%
    07:00 +24°C° 0 mm 2 mps 727 mmHg 82%
    08:00 +26°C° 0 mm 2 mps 727 mmHg 74%
    09:00 +28°C° 0 mm 2 mps 728 mmHg 66%
    10:00 +30°C° 0 mm 2 mps 728 mmHg 58%
    11:00 +30°C° 0.4 mm 2 mps 727 mmHg 59%
    12:00 +31°C° 0.4 mm 2 mps 726 mmHg 60%
    13:00 +31°C° 0.4 mm 2 mps 726 mmHg 61%
    14:00 +30°C° 1.2 mm 2 mps 725 mmHg 65%
    15:00 +30°C° 1.2 mm 1 mps 725 mmHg 69%
    16:00 +29°C° 1.2 mm 1 mps 725 mmHg 73%
    17:00 +28°C° 0.3 mm 1 mps 725 mmHg 78%
    18:00 +27°C° 0.3 mm 1 mps 725 mmHg 83%
    19:00 +24°C° 0.3 mm 0 mps 726 mmHg 88%
    20:00 +25°C° 0.6 mm 1 mps 726 mmHg 89%
    21:00 +25°C° 0.6 mm 1 mps 727 mmHg 90%
    22:00 +24°C° 0.6 mm 1 mps 727 mmHg 91%
    23:00 +24°C° 0.2 mm 1 mps 727 mmHg 92%
    Show more